• In Hungary
  • List of Countries
  • For 7 days
  • Water Temperature
  • Satellite Maps
  • Weather Map
  • News
  • Weather Widgets
  • user-avatar
    Login

    Hourly Weather Bansko

    Today, 18 June, Monday

    Time Temperature Precipitation Wind Pressure Humidity
    00:00 +18°C° 0 mm 1 mps 717 mmHg 85%
    01:00 +18°C° 0 mm 1 mps 717 mmHg 86%
    02:00 +16°C° 0 mm 1 mps 717 mmHg 87%
    03:00 +16°C° 0 mm 1 mps 717 mmHg 87%
    04:00 +16°C° 0 mm 1 mps 717 mmHg 88%
    05:00 +15°C° 0 mm 1 mps 717 mmHg 89%
    06:00 +19°C° 0 mm 1 mps 717 mmHg 82%
    07:00 +21°C° 0 mm 1 mps 718 mmHg 75%
    08:00 +23°C° 0 mm 2 mps 718 mmHg 69%
    09:00 +24°C° 0.1 mm 2 mps 718 mmHg 64%
    10:00 +26°C° 0.1 mm 2 mps 718 mmHg 58%
    11:00 +27°C° 0.1 mm 2 mps 718 mmHg 53%
    12:00 +28°C° 0.5 mm 2 mps 718 mmHg 52%
    13:00 +28°C° 0.5 mm 2 mps 718 mmHg 50%
    14:00 +29°C° 0.5 mm 2 mps 718 mmHg 49%
    15:00 +29°C° 0.8 mm 2 mps 718 mmHg 51%
    16:00 +28°C° 0.8 mm 2 mps 717 mmHg 54%
    17:00 +27°C° 0.8 mm 2 mps 717 mmHg 56%
    18:00 +26°C° 1 mm 2 mps 717 mmHg 63%
    19:00 +24°C° 1 mm 1 mps 717 mmHg 70%
    20:00 +22°C° 1 mm 1 mps 717 mmHg 77%
    21:00 +21°C° 0.6 mm 1 mps 718 mmHg 80%
    22:00 +20°C° 0.6 mm 1 mps 718 mmHg 83%
    23:00 +20°C° 0.6 mm 1 mps 719 mmHg 87%

    Tomorrow, 19 June, Tuesday

    Time Temperature Precipitation Wind Pressure Humidity
    00:00 +19°C° 0.2 mm 1 mps 719 mmHg 88%
    01:00 +19°C° 0.2 mm 1 mps 719 mmHg 89%
    02:00 +19°C° 0.2 mm 1 mps 719 mmHg 90%
    03:00 +18°C° 0 mm 1 mps 719 mmHg 91%
    04:00 +18°C° 0 mm 1 mps 719 mmHg 92%
    05:00 +18°C° 0 mm 1 mps 719 mmHg 92%
    06:00 +19°C° 0 mm 2 mps 719 mmHg 86%
    07:00 +20°C° 0 mm 2 mps 720 mmHg 80%
    08:00 +23°C° 0 mm 2 mps 720 mmHg 74%
    09:00 +25°C° 0.1 mm 2 mps 720 mmHg 66%
    10:00 +26°C° 0.1 mm 2 mps 721 mmHg 58%
    11:00 +28°C° 0.1 mm 3 mps 721 mmHg 50%
    12:00 +28°C° 0.2 mm 3 mps 721 mmHg 48%
    13:00 +29°C° 0.2 mm 3 mps 721 mmHg 46%
    14:00 +30°C° 0.2 mm 3 mps 721 mmHg 44%
    15:00 +29°C° 0.1 mm 3 mps 720 mmHg 45%
    16:00 +28°C° 0.1 mm 3 mps 720 mmHg 47%
    17:00 +28°C° 0.1 mm 2 mps 720 mmHg 48%
    18:00 +26°C° 0.2 mm 2 mps 720 mmHg 55%
    19:00 +24°C° 0.2 mm 2 mps 720 mmHg 61%
    20:00 +21°C° 0.2 mm 2 mps 720 mmHg 68%
    21:00 +21°C° 0.1 mm 1 mps 721 mmHg 71%
    22:00 +20°C° 0.1 mm 1 mps 721 mmHg 73%
    23:00 +19°C° 0.1 mm 1 mps 722 mmHg 76%

    Day after tomorrow, 20 June, Wednesday

    Time Temperature Precipitation Wind Pressure Humidity
    00:00 +19°C° 0 mm 1 mps 722 mmHg 77%
    01:00 +19°C° 0 mm 1 mps 722 mmHg 77%
    02:00 +18°C° 0 mm 1 mps 722 mmHg 78%
    03:00 +18°C° 0 mm 1 mps 722 mmHg 79%
    04:00 +18°C° 0 mm 1 mps 722 mmHg 80%
    05:00 +18°C° 0 mm 1 mps 722 mmHg 82%
    06:00 +20°C° 0 mm 1 mps 722 mmHg 74%
    07:00 +21°C° 0 mm 2 mps 723 mmHg 66%
    08:00 +24°C° 0 mm 2 mps 723 mmHg 59%
    09:00 +26°C° 0 mm 2 mps 724 mmHg 53%
    10:00 +27°C° 0 mm 2 mps 724 mmHg 47%
    11:00 +29°C° 0 mm 3 mps 724 mmHg 41%
    12:00 +29°C° 0 mm 2 mps 724 mmHg 39%
    13:00 +30°C° 0 mm 2 mps 723 mmHg 37%
    14:00 +30°C° 0 mm 2 mps 723 mmHg 35%
    15:00 +30°C° 0 mm 2 mps 723 mmHg 38%
    16:00 +29°C° 0 mm 2 mps 723 mmHg 40%
    17:00 +29°C° 0 mm 2 mps 723 mmHg 42%
    18:00 +27°C° 0 mm 2 mps 722 mmHg 48%
    19:00 +25°C° 0 mm 1 mps 722 mmHg 53%
    20:00 +23°C° 0 mm 1 mps 722 mmHg 58%
    21:00 +22°C° 0 mm 1 mps 723 mmHg 62%
    22:00 +21°C° 0 mm 1 mps 723 mmHg 65%
    23:00 +20°C° 0 mm 1 mps 723 mmHg 68%

    21 June, Thursday

    Time Temperature Precipitation Wind Pressure Humidity
    00:00 +19°C° 0 mm 1 mps 723 mmHg 69%
    01:00 +19°C° 0 mm 1 mps 723 mmHg 70%
    02:00 +18°C° 0 mm 1 mps 723 mmHg 71%
    03:00 +18°C° 0 mm 1 mps 722 mmHg 72%
    04:00 +18°C° 0 mm 1 mps 722 mmHg 73%
    05:00 +18°C° 0 mm 1 mps 722 mmHg 73%
    06:00 +20°C° 0 mm 1 mps 722 mmHg 66%
    07:00 +23°C° 0 mm 1 mps 723 mmHg 59%
    08:00 +25°C° 0 mm 1 mps 723 mmHg 52%
    09:00 +27°C° 0 mm 1 mps 723 mmHg 48%
    10:00 +28°C° 0 mm 1 mps 722 mmHg 45%
    11:00 +29°C° 0 mm 1 mps 722 mmHg 41%
    12:00 +30°C° 0 mm 1 mps 722 mmHg 40%
    13:00 +30°C° 0 mm 1 mps 722 mmHg 39%
    14:00 +31°C° 0 mm 1 mps 721 mmHg 39%
    15:00 +30°C° 0 mm 1 mps 721 mmHg 41%
    16:00 +29°C° 0 mm 1 mps 720 mmHg 44%
    17:00 +29°C° 0 mm 1 mps 720 mmHg 47%
    18:00 +27°C° 0 mm 1 mps 720 mmHg 51%
    19:00 +25°C° 0 mm 1 mps 720 mmHg 55%
    20:00 +24°C° 0 mm 1 mps 720 mmHg 59%
    21:00 +23°C° 0 mm 1 mps 720 mmHg 62%
    22:00 +22°C° 0 mm 1 mps 720 mmHg 64%
    23:00 +21°C° 0 mm 1 mps 720 mmHg 67%

    22 June, Friday

    Time Temperature Precipitation Wind Pressure Humidity
    00:00 +21°C° 0 mm 1 mps 719 mmHg 69%
    01:00 +20°C° 0 mm 1 mps 719 mmHg 72%
    02:00 +19°C° 0 mm 1 mps 719 mmHg 74%
    03:00 +19°C° 0 mm 1 mps 719 mmHg 76%
    04:00 +19°C° 0 mm 1 mps 718 mmHg 77%
    05:00 +18°C° 0 mm 1 mps 718 mmHg 78%
    06:00 +21°C° 0 mm 1 mps 718 mmHg 70%
    07:00 +23°C° 0 mm 1 mps 719 mmHg 63%
    08:00 +26°C° 0 mm 1 mps 719 mmHg 55%
    09:00 +27°C° 0.1 mm 1 mps 719 mmHg 51%
    10:00 +29°C° 0.1 mm 1 mps 719 mmHg 48%
    11:00 +30°C° 0.1 mm 2 mps 719 mmHg 45%
    12:00 +30°C° 0.3 mm 2 mps 718 mmHg 44%
    13:00 +31°C° 0.3 mm 2 mps 718 mmHg 43%
    14:00 +31°C° 0.3 mm 2 mps 717 mmHg 43%
    15:00 +31°C° 0.3 mm 2 mps 717 mmHg 45%
    16:00 +30°C° 0.3 mm 1 mps 717 mmHg 46%
    17:00 +30°C° 0.3 mm 1 mps 717 mmHg 48%
    18:00 +28°C° 0.2 mm 1 mps 717 mmHg 52%
    19:00 +26°C° 0.2 mm 1 mps 717 mmHg 57%
    20:00 +25°C° 0.2 mm 1 mps 717 mmHg 61%
    21:00 +23°C° 0.3 mm 1 mps 717 mmHg 66%
    22:00 +22°C° 0.3 mm 1 mps 718 mmHg 72%
    23:00 +21°C° 0.3 mm 1 mps 718 mmHg 77%

    23 June, Saturday

    Time Temperature Precipitation Wind Pressure Humidity
    00:00 +20°C° 0.2 mm 1 mps 718 mmHg 79%
    01:00 +20°C° 0.2 mm 1 mps 718 mmHg 82%
    02:00 +19°C° 0.2 mm 1 mps 719 mmHg 84%
    03:00 +18°C° 0.1 mm 2 mps 719 mmHg 87%
    04:00 +17°C° 0.1 mm 2 mps 719 mmHg 89%
    05:00 +17°C° 0.1 mm 2 mps 719 mmHg 91%
    06:00 +19°C° 0.1 mm 2 mps 719 mmHg 84%
    07:00 +20°C° 0.1 mm 2 mps 720 mmHg 78%
    08:00 +23°C° 0.1 mm 2 mps 720 mmHg 71%
    09:00 +24°C° 0.3 mm 2 mps 720 mmHg 65%
    10:00 +26°C° 0.3 mm 2 mps 720 mmHg 59%
    11:00 +28°C° 0.3 mm 2 mps 720 mmHg 52%
    12:00 +28°C° 0.6 mm 2 mps 720 mmHg 52%
    13:00 +29°C° 0.6 mm 2 mps 720 mmHg 51%
    14:00 +29°C° 0.6 mm 2 mps 719 mmHg 51%
    15:00 +28°C° 0.6 mm 2 mps 719 mmHg 53%
    16:00 +28°C° 0.6 mm 2 mps 719 mmHg 56%
    17:00 +27°C° 0.6 mm 2 mps 719 mmHg 58%
    18:00 +25°C° 0.4 mm 2 mps 719 mmHg 63%
    19:00 +24°C° 0.4 mm 2 mps 720 mmHg 68%
    20:00 +21°C° 0.4 mm 2 mps 720 mmHg 73%
    21:00 +20°C° 0 mm 2 mps 720 mmHg 78%
    22:00 +19°C° 0 mm 2 mps 720 mmHg 82%
    23:00 +18°C° 0 mm 2 mps 721 mmHg 86%
    Show more